{"data":{"norad_id":53445,"intl_designator":"2022-098B","name":"JILIN-1 GAOFEN 03D09","alt_names":[],"object_type":"PAYLOAD","status":"ACTIVE","operator":null,"country":"PRC","launch_date":"2022-08-10","launch_site_code":"TAISC","launch_vehicle":null,"mission":null,"orbit_class":"UNKNOWN","rcs_meters":null,"size_class":null,"mass_kg":null,"dimensions":null,"purposes":[],"wikipedia_slug":null,"has_3d_model":false,"image_url":null,"decayed_at":null,"tle_current":{"epoch":"2026-05-25T04:32:58.281216Z","epoch_age_seconds":58429,"freshness":"FRESH","line1":"1 53445U 22098B   26145.18956344  .00060448  00000+0  65800-3 0  9993","line2":"2 53445  97.5560 273.2112 0003493 109.6499 250.5137 15.63242213211039","mean_motion":15.63242213,"eccentricity":0.0003493,"inclination_deg":97.556,"raan_deg":273.2112,"arg_perigee_deg":109.6499,"mean_anomaly_deg":250.5137,"bstar":0.000658,"rev_number":21103,"period_min":92.116243281104,"perigee_km":375.93884265512,"apogee_km":380.6588887509,"semimajor_km":6756.435865703,"source":"CELESTRAK","updated_at":"2026-05-25T13:37:58.191313Z"}}}